This demonstration page uses our WeatherBlox Daily Observations layout. Learn more.

Left ArrowRight Arrow

36.17497, -115.13722

Hourly Observations for April 30, 2017

Temp ( °F °C ) Dew Point ( °F °C ) Humidity (%) Winds ( mph kmh ) Pressure ( in mb ) Visibility ( mi km ) Precip ( " mm )
12:53 am 00:53 Clear 65 18.3 16 -8.9 15 15 N N/A 30.13 1020 10 16.0934 N/A
1:53 am 01:53 Clear 64 17.8 16 -8.9 15 15 S 7 11 30.13 1020 10 16.0934 N/A
2:53 am 02:53 Clear 61 16.1 15 -9.4 17 17 SSE 6 9 30.13 1020 10 16.0934 N/A
3:53 am 03:53 Clear 60 15.6 17 -8.3 19 19 SSW 5 7 30.13 1020 10 16.0934 N/A
4:53 am 04:53 Clear 59 15 17 -8.3 19 19 SSW 5 7 30.12 1020 10 16.0934 N/A
5:53 am 05:53 Sunny 57 13.9 19 -7.2 23 23 W 3 6 30.13 1020 10 16.0934 N/A
6:53 am 06:53 Sunny 58 14.4 21 -6.1 24 24 N 3 6 30.15 1021 10 16.0934 N/A
7:53 am 07:53 Sunny 62 16.7 20 -6.7 20 20 N 3 6 30.18 1022 10 16.0934 N/A
8:53 am 08:53 Sunny 66 18.9 18 -7.8 16 16 N N/A 30.19 1022 10 16.0934 N/A
9:53 am 09:53 Sunny 68 20 14 -10 12 12 SSE 5 7 30.18 1022 10 16.0934 N/A
10:53 am 10:53 Sunny 71 21.7 14 -10 11 11 N N/A 30.16 1021 10 16.0934 N/A
11:53 am 11:53 Sunny 74 23.3 14 -10 10 10 VRB 6 9 30.12 1020 10 16.0934 N/A
12:53 pm 12:53 Sunny 75 23.9 14 -10 10 10 SSE 9 15 30.07 1018 10 16.0934 N/A
1:53 pm 13:53 Sunny 77 25 13 -10.6 9 9 SSE 5 7 30.04 1017 10 16.0934 N/A
2:53 pm 14:53 Sunny 80 26.7 13 -10.6 8 8 VRB 3 6 30 1016 10 16.0934 N/A
3:53 pm 15:53 Sunny 81 27.2 12 -11.1 7 7 VRB 5 7 29.96 1014 10 16.0934 N/A
4:53 pm 16:53 Sunny 82 27.8 12 -11.1 7 7 VRB 3 6 29.93 1014 10 16.0934 N/A
5:53 pm 17:53 Sunny 83 28.3 12 -11.1 7 7 SW 9 15 29.92 1013 10 16.0934 N/A
6:53 pm 18:53 Sunny 82 27.8 12 -11.1 7 7 N N/A 29.91 1013 10 16.0934 N/A
7:53 pm 19:53 Clear 80 26.7 14 -10 8 8 SSW 5 7 29.91 1013 10 16.0934 N/A
8:53 pm 20:53 Clear 77 25 16 -8.9 10 10 S 5 7 29.92 1013 10 16.0934 N/A
9:53 pm 21:53 Clear 73 22.8 17 -8.3 12 12 NE 5 7 29.92 1013 10 16.0934 N/A
10:53 pm 22:53 Clear 69 20.6 18 -7.8 14 14 NNW 7 11 29.93 1014 10 16.0934 N/A
11:53 pm 23:53 Clear 68 20 20 -6.7 16 16 N 3 6 29.93 1013 10 16.0934 N/A

Powered by AerisWeather